CHH7142 ZUCK-ZGGG

Flight info

Callsign CHH7142
Flight time 1h 37m
Altitude 33100
Route VILUS1Z VILUS W180 LIDMA W182 LAGEX G586 SJG B330 GYA GYA8
Aircraft A21N/M-SDE2E3FGHIRWXY/LB1

Departure

Time 2026-04-23 12:54
Airport Chongqing Jiangbei International Airport (ZUCK)

Arrival

Time 2026-04-23 14:31
Airport Guangzhou Baiyun International Airport (ZGGG)
Time Latitude Longitude Altitude Speed Heading
2026-04-23 12:10 29.71753 106.64967 1359 ft 0 kts 100°
2026-04-23 12:40 29.71755 106.64954 1361 ft 4 kts 103°
2026-04-23 12:41 29.71763 106.64924 1361 ft 4 kts 116°
2026-04-23 12:41 29.71777 106.64902 1362 ft 4 kts 150°
2026-04-23 12:41 29.71793 106.64898 1358 ft 0 kts 196°
2026-04-23 12:48 29.71788 106.64896 1360 ft 2 kts 196°
2026-04-23 12:48 29.71763 106.64888 1359 ft 5 kts 194°
2026-04-23 12:48 29.71718 106.64875 1360 ft 8 kts 193°
2026-04-23 12:48 29.71673 106.64838 1361 ft 10 kts 261°
2026-04-23 12:49 29.71657 106.64769 1363 ft 9 kts 205°
2026-04-23 12:49 29.71588 106.64745 1361 ft 11 kts 197°
2026-04-23 12:49 29.71508 106.64718 1361 ft 13 kts 197°
2026-04-23 12:49 29.71416 106.64687 1361 ft 14 kts 196°
2026-04-23 12:50 29.71315 106.64652 1360 ft 16 kts 196°
2026-04-23 12:50 29.71204 106.64614 1362 ft 17 kts 197°
2026-04-23 12:50 29.71084 106.64573 1362 ft 19 kts 196°
2026-04-23 12:50 29.70959 106.64529 1362 ft 20 kts 197°
2026-04-23 12:51 29.70824 106.64482 1362 ft 21 kts 197°
2026-04-23 12:51 29.70681 106.64433 1362 ft 22 kts 197°
2026-04-23 12:51 29.70595 106.64403 1362 ft 12 kts 196°
2026-04-23 12:51 29.70509 106.64374 1363 ft 14 kts 196°
2026-04-23 12:52 29.70430 106.64341 1363 ft 10 kts 223°
2026-04-23 12:52 29.70420 106.64302 1363 ft 6 kts 276°
2026-04-23 12:52 29.70433 106.64248 1363 ft 8 kts 287°
2026-04-23 12:52 29.70451 106.64180 1364 ft 10 kts 286°
2026-04-23 12:53 29.70472 106.64095 1365 ft 12 kts 289°
2026-04-23 12:53 29.70537 106.64086 1366 ft 0 kts 17°
2026-04-23 12:53 29.70710 106.64145 1364 ft 62 kts 17°
2026-04-23 12:54 29.71345 106.64364 1361 ft 126 kts 17°
2026-04-23 12:54 29.72325 106.64705 1363 ft 168 kts 17°
2026-04-23 12:54 29.73495 106.65113 1784 ft 175 kts 17°
2026-04-23 12:54 29.74663 106.65519 2447 ft 176 kts 18°
2026-04-23 12:55 29.75443 106.65797 2861 ft 178 kts 19°
2026-04-23 12:55 29.76635 106.66210 3443 ft 181 kts 18°
2026-04-23 12:55 29.77861 106.66621 4052 ft 186 kts 19°
2026-04-23 12:55 29.79125 106.67059 4697 ft 197 kts 18°
2026-04-23 12:56 29.80499 106.67538 5176 ft 217 kts 18°
2026-04-23 12:56 29.82004 106.68057 5701 ft 234 kts 18°
2026-04-23 12:56 29.83625 106.68619 6160 ft 256 kts 18°
2026-04-23 12:56 29.85409 106.69239 6539 ft 279 kts 18°
2026-04-23 12:57 29.87308 106.69897 7132 ft 289 kts 18°
2026-04-23 12:57 29.89244 106.70568 7949 ft 291 kts 17°
2026-04-23 12:57 29.91183 106.71239 8840 ft 291 kts 17°
2026-04-23 12:57 29.93131 106.71913 9729 ft 293 kts 17°
2026-04-23 12:58 29.95103 106.72597 10362 ft 304 kts 16°
2026-04-23 12:58 29.97249 106.73047 10642 ft 326 kts
2026-04-23 12:58 29.99559 106.72618 10735 ft 350 kts 339°
2026-04-23 12:58 30.01735 106.71184 10795 ft 372 kts 320°
2026-04-23 12:59 30.03443 106.68936 10820 ft 376 kts 300°
2026-04-23 12:59 30.04388 106.66142 11276 ft 376 kts 280°
2026-04-23 12:59 30.04476 106.63135 11974 ft 377 kts 262°
2026-04-23 12:59 30.04029 106.60154 12737 ft 377 kts 259°
2026-04-23 13:00 30.03619 106.57154 13486 ft 379 kts 262°
2026-04-23 13:00 30.03328 106.54129 14129 ft 381 kts 264°
2026-04-23 13:00 30.03115 106.51075 14725 ft 383 kts 265°
2026-04-23 13:00 30.02906 106.47998 15283 ft 386 kts 263°
2026-04-23 13:01 30.02284 106.44981 15829 ft 389 kts 250°
2026-04-23 13:01 30.01008 106.42220 16354 ft 394 kts 236°
2026-04-23 13:01 29.99109 106.39918 16865 ft 400 kts 220°
2026-04-23 13:01 29.96764 106.38142 17383 ft 406 kts 213°
2026-04-23 13:02 29.94311 106.36498 17909 ft 410 kts 212°
2026-04-23 13:02 29.91840 106.34832 18368 ft 414 kts 213°
2026-04-23 13:02 29.89351 106.33136 18792 ft 417 kts 213°
2026-04-23 13:02 29.86851 106.31412 19249 ft 420 kts 214°
2026-04-23 13:03 29.84299 106.29747 19688 ft 425 kts 209°
2026-04-23 13:03 29.81510 106.28536 20142 ft 432 kts 201°
2026-04-23 13:03 29.78620 106.27545 20597 ft 435 kts 200°
2026-04-23 13:03 29.75704 106.26573 21033 ft 438 kts 200°
2026-04-23 13:04 29.72764 106.25585 21491 ft 442 kts 200°
2026-04-23 13:04 29.69805 106.24581 21955 ft 445 kts 200°
2026-04-23 13:04 29.66793 106.23678 22390 ft 452 kts 195°
2026-04-23 13:04 29.63635 106.23357 22840 ft 461 kts 182°
2026-04-23 13:05 29.60430 106.23834 23262 ft 471 kts 169°
2026-04-23 13:05 29.57324 106.25130 23647 ft 480 kts 156°
2026-04-23 13:05 29.54491 106.27205 23979 ft 488 kts 143°
2026-04-23 13:05 29.52087 106.29985 24318 ft 494 kts 130°
2026-04-23 13:06 29.48011 106.36402 24990 ft 501 kts 127°
2026-04-23 13:06 29.45960 106.39647 25310 ft 504 kts 127°
2026-04-23 13:06 29.43877 106.42897 25621 ft 507 kts 127°
2026-04-23 13:07 29.41801 106.46122 25926 ft 510 kts 128°
2026-04-23 13:07 29.39681 106.49400 26236 ft 514 kts 128°
2026-04-23 13:07 29.37546 106.52701 26550 ft 516 kts 128°
2026-04-23 13:07 29.35411 106.56009 26931 ft 517 kts 128°
2026-04-23 13:08 29.33280 106.59324 27309 ft 516 kts 128°
2026-04-23 13:08 29.31147 106.62631 27699 ft 516 kts 128°
2026-04-23 13:08 29.29002 106.65934 28100 ft 517 kts 128°
2026-04-23 13:08 29.26855 106.69234 28484 ft 517 kts 128°
2026-04-23 13:09 29.24710 106.72543 28858 ft 518 kts 128°
2026-04-23 13:09 29.22572 106.75851 29274 ft 517 kts 128°
2026-04-23 13:09 29.20440 106.79164 29690 ft 517 kts 128°
2026-04-23 13:09 29.18302 106.82477 29981 ft 517 kts 128°
2026-04-23 13:10 29.16158 106.85777 30317 ft 517 kts 129°
2026-04-23 13:10 29.13909 106.88972 30689 ft 513 kts 136°
2026-04-23 13:10 29.11280 106.91663 31064 ft 503 kts 149°
2026-04-23 13:10 29.08311 106.93687 31449 ft 492 kts 161°
2026-04-23 13:11 29.05136 106.94987 31811 ft 480 kts 172°
2026-04-23 13:11 29.01882 106.95585 32157 ft 468 kts 184°
2026-04-23 13:11 28.98664 106.95630 32574 ft 459 kts 189°
2026-04-23 13:11 28.95478 106.95550 32967 ft 457 kts 189°
2026-04-23 13:12 28.92302 106.95473 33080 ft 456 kts 189°
2026-04-23 13:12 28.85957 106.95370 33084 ft 456 kts 189°
2026-04-23 13:13 28.79624 106.95295 33059 ft 453 kts 188°
2026-04-23 13:13 28.73300 106.95218 33068 ft 455 kts 188°
2026-04-23 13:14 28.66982 106.95147 33081 ft 454 kts 188°
2026-04-23 13:14 28.60661 106.95074 33095 ft 454 kts 188°
2026-04-23 13:15 28.54384 106.94997 33100 ft 453 kts 188°
2026-04-23 13:15 28.48081 106.94920 33113 ft 454 kts 188°
2026-04-23 13:16 28.41761 106.94840 33077 ft 454 kts 188°
2026-04-23 13:16 28.35451 106.94771 33111 ft 453 kts 188°
2026-04-23 13:17 28.29144 106.94696 33101 ft 453 kts 188°
2026-04-23 13:17 28.22807 106.94702 33124 ft 456 kts 185°
2026-04-23 13:18 28.16462 106.95046 33104 ft 455 kts 185°
2026-04-23 13:18 28.10169 106.95397 33114 ft 451 kts 185°
2026-04-23 13:19 28.03934 106.95741 33109 ft 449 kts 185°
2026-04-23 13:19 27.97666 106.96068 33145 ft 452 kts 185°
2026-04-23 13:20 27.91407 106.96395 33117 ft 451 kts 185°
2026-04-23 13:20 27.85139 106.96724 33118 ft 450 kts 185°
2026-04-23 13:21 27.78881 106.97054 33118 ft 450 kts 185°
2026-04-23 13:21 27.72619 106.97386 33120 ft 450 kts 185°
2026-04-23 13:22 27.66357 106.97715 33113 ft 450 kts 185°
2026-04-23 13:22 27.60095 106.98038 33079 ft 450 kts 186°
2026-04-23 13:23 27.53851 106.98365 33106 ft 449 kts 186°
2026-04-23 13:23 27.47608 106.98693 33113 ft 449 kts 186°
2026-04-23 13:24 27.41373 106.99030 33117 ft 449 kts 186°
2026-04-23 13:24 27.35137 106.99371 33120 ft 448 kts 186°
2026-04-23 13:25 27.28898 106.99713 33122 ft 449 kts 186°
2026-04-23 13:25 27.22661 107.00048 33124 ft 449 kts 186°
2026-04-23 13:26 27.16423 107.00384 33125 ft 449 kts 186°
2026-04-23 13:26 27.10223 107.00718 33126 ft 449 kts 186°
2026-04-23 13:27 27.03976 107.01107 33121 ft 453 kts 182°
2026-04-23 13:27 27.00850 107.01813 33098 ft 465 kts 172°
2026-04-23 13:27 26.97829 107.03229 33103 ft 479 kts 160°
2026-04-23 13:27 26.95043 107.05389 33136 ft 496 kts 148°
2026-04-23 13:28 26.92651 107.08255 33131 ft 512 kts 134°
2026-04-23 13:28 26.90820 107.11735 33141 ft 526 kts 119°
2026-04-23 13:28 26.89637 107.15648 33147 ft 533 kts 110°
2026-04-23 13:29 26.87729 107.23629 33149 ft 529 kts 109°
2026-04-23 13:29 26.85751 107.31563 33145 ft 529 kts 110°
2026-04-23 13:30 26.83729 107.39472 33142 ft 528 kts 110°
2026-04-23 13:30 26.81693 107.47404 33143 ft 531 kts 111°
2026-04-23 13:31 26.79660 107.55349 33143 ft 531 kts 111°
2026-04-23 13:31 26.77622 107.63289 33138 ft 531 kts 111°
2026-04-23 13:32 26.75564 107.71219 33141 ft 530 kts 111°
2026-04-23 13:32 26.73505 107.79159 33130 ft 533 kts 111°
2026-04-23 13:33 26.71428 107.87128 33131 ft 534 kts 111°
2026-04-23 13:33 26.69353 107.95091 33123 ft 533 kts 111°
2026-04-23 13:34 26.67275 108.03042 33133 ft 533 kts 111°
2026-04-23 13:34 26.65186 108.11003 33130 ft 533 kts 111°
2026-04-23 13:35 26.63109 108.18909 33131 ft 534 kts 111°
2026-04-23 13:35 26.61009 108.26840 33136 ft 532 kts 112°
2026-04-23 13:36 26.58926 108.34742 33140 ft 531 kts 112°
2026-04-23 13:36 26.56977 108.42707 33127 ft 533 kts 109°
2026-04-23 13:37 26.55114 108.50785 33129 ft 538 kts 110°
2026-04-23 13:37 26.53257 108.58880 33144 ft 537 kts 110°
2026-04-23 13:38 26.51369 108.66962 33120 ft 539 kts 111°
2026-04-23 13:38 26.49455 108.75075 33150 ft 541 kts 110°
2026-04-23 13:39 26.47555 108.83217 33141 ft 542 kts 111°
2026-04-23 13:39 26.45644 108.91324 33129 ft 540 kts 111°
2026-04-23 13:40 26.43923 108.97995 33135 ft 533 kts 118°
2026-04-23 13:40 26.41670 109.02817 33120 ft 515 kts 135°
2026-04-23 13:40 26.39415 109.05826 33116 ft 497 kts 147°
2026-04-23 13:41 26.35079 109.09859 33149 ft 485 kts 154°
2026-04-23 13:41 26.28846 109.15312 33131 ft 490 kts 153°
2026-04-23 13:42 26.24437 109.19280 33124 ft 490 kts 152°
2026-04-23 13:42 26.19126 109.24048 33122 ft 490 kts 153°
2026-04-23 13:43 26.13814 109.28798 33068 ft 490 kts 153°
2026-04-23 13:43 26.08490 109.33561 33102 ft 491 kts 153°
2026-04-23 13:44 26.03163 109.38314 33131 ft 491 kts 153°
2026-04-23 13:44 25.97827 109.43069 33113 ft 491 kts 153°
2026-04-23 13:45 25.92489 109.47821 33096 ft 491 kts 153°
2026-04-23 13:45 25.87192 109.52532 33095 ft 491 kts 153°
2026-04-23 13:46 25.81822 109.57302 33088 ft 491 kts 153°
2026-04-23 13:46 25.76547 109.62155 33071 ft 504 kts 147°
2026-04-23 13:47 25.71465 109.67536 33079 ft 505 kts 147°
2026-04-23 13:47 25.66390 109.72918 33087 ft 505 kts 147°
2026-04-23 13:48 25.61328 109.78269 33074 ft 503 kts 147°
2026-04-23 13:48 25.56260 109.83616 33089 ft 503 kts 147°
2026-04-23 13:49 25.51192 109.88957 33098 ft 503 kts 147°
2026-04-23 13:49 25.46129 109.94293 33042 ft 505 kts 147°
2026-04-23 13:50 25.41023 109.99662 33077 ft 509 kts 147°
2026-04-23 13:50 25.35894 110.05052 33083 ft 506 kts 147°
2026-04-23 13:51 25.30785 110.10412 33096 ft 506 kts 147°
2026-04-23 13:51 25.25682 110.15759 33086 ft 505 kts 147°
2026-04-23 13:52 25.20581 110.21086 33089 ft 505 kts 147°
2026-04-23 13:52 25.15505 110.26454 33074 ft 506 kts 147°
2026-04-23 13:53 25.10432 110.31831 33040 ft 505 kts 146°
2026-04-23 13:53 25.05359 110.37196 33066 ft 505 kts 146°
2026-04-23 13:54 25.00280 110.42556 33070 ft 506 kts 146°
2026-04-23 13:54 24.95192 110.47934 33067 ft 506 kts 146°
2026-04-23 13:55 24.90127 110.53294 33050 ft 506 kts 146°
2026-04-23 13:55 24.84784 110.58935 33064 ft 504 kts 146°
2026-04-23 13:56 24.79730 110.64261 33080 ft 503 kts 146°
2026-04-23 13:56 24.74663 110.69588 33052 ft 504 kts 146°
2026-04-23 13:57 24.69597 110.74913 33069 ft 504 kts 146°
2026-04-23 13:57 24.64529 110.80241 33073 ft 505 kts 145°
2026-04-23 13:58 24.59527 110.85654 33066 ft 504 kts 144°
2026-04-23 13:58 24.54527 110.91044 33078 ft 503 kts 144°
2026-04-23 13:59 24.49526 110.96422 33073 ft 504 kts 144°
2026-04-23 13:59 24.44541 111.01774 33072 ft 504 kts 144°
2026-04-23 14:00 24.40352 111.06272 33048 ft 502 kts 144°
2026-04-23 14:00 24.34553 111.12489 33068 ft 502 kts 144°
2026-04-23 14:01 24.29570 111.17826 33065 ft 500 kts 144°
2026-04-23 14:01 24.24591 111.23152 33066 ft 500 kts 144°
2026-04-23 14:02 24.19354 111.28013 33057 ft 483 kts 158°
2026-04-23 14:02 24.13448 111.31327 33063 ft 475 kts 163°
2026-04-23 14:03 24.07518 111.34553 33038 ft 478 kts 162°
2026-04-23 14:03 24.01593 111.37870 33059 ft 478 kts 162°
2026-04-23 14:04 23.95665 111.41184 33052 ft 478 kts 162°
2026-04-23 14:04 23.89737 111.44490 33048 ft 478 kts 162°
2026-04-23 14:05 23.83808 111.47792 33054 ft 478 kts 162°
2026-04-23 14:05 23.77887 111.51086 33052 ft 478 kts 162°
2026-04-23 14:06 23.71960 111.54375 33052 ft 478 kts 162°
2026-04-23 14:06 23.66032 111.57666 33060 ft 478 kts 162°
2026-04-23 14:07 23.60100 111.60957 33068 ft 478 kts 162°
2026-04-23 14:07 23.51229 111.65869 33057 ft 473 kts 162°
2026-04-23 14:08 23.45385 111.69098 33060 ft 473 kts 162°
2026-04-23 14:08 23.39473 111.72364 32855 ft 475 kts 161°
2026-04-23 14:09 23.36515 111.74000 32428 ft 477 kts 161°
2026-04-23 14:09 23.33562 111.75633 31787 ft 476 kts 161°
2026-04-23 14:09 23.30649 111.77241 31109 ft 476 kts 161°
2026-04-23 14:09 23.27706 111.78881 30426 ft 476 kts 160°
2026-04-23 14:10 23.24901 111.80850 29642 ft 486 kts 149°
2026-04-23 14:10 23.22441 111.83430 28759 ft 500 kts 136°
2026-04-23 14:10 23.20487 111.86606 27928 ft 513 kts 123°
2026-04-23 14:10 23.19181 111.90242 27158 ft 521 kts 109°
2026-04-23 14:11 23.18358 111.94079 26456 ft 520 kts 106°
2026-04-23 14:11 23.17604 111.97909 25780 ft 518 kts 105°
2026-04-23 14:11 23.16842 112.01729 25118 ft 515 kts 106°
2026-04-23 14:11 23.16068 112.05514 24445 ft 512 kts 107°
2026-04-23 14:12 23.15281 112.09267 23786 ft 508 kts 107°
2026-04-23 14:12 23.14497 112.12995 23032 ft 504 kts 107°
2026-04-23 14:12 23.13720 112.16685 22279 ft 498 kts 106°
2026-04-23 14:12 23.12952 112.20332 21537 ft 493 kts 106°
2026-04-23 14:13 23.12451 112.22730 21063 ft 489 kts 105°
2026-04-23 14:13 23.11707 112.26308 20390 ft 483 kts 105°
2026-04-23 14:13 23.10718 112.31027 19528 ft 476 kts 106°
2026-04-23 14:13 23.10230 112.33340 19106 ft 472 kts 105°
2026-04-23 14:14 23.09498 112.36791 18510 ft 466 kts 105°
2026-04-23 14:14 23.08538 112.41341 17676 ft 459 kts 105°
2026-04-23 14:14 23.07825 112.44696 17038 ft 452 kts 106°
2026-04-23 14:14 23.07263 112.46857 16620 ft 446 kts 112°
2026-04-23 14:15 23.05287 112.50691 15847 ft 428 kts 133°
2026-04-23 14:15 23.03989 112.52279 15488 ft 421 kts 137°
2026-04-23 14:15 23.01985 112.54562 14965 ft 415 kts 138°
2026-04-23 14:15 22.99999 112.56808 14409 ft 410 kts 137°
2026-04-23 14:16 22.98047 112.59037 13889 ft 407 kts 136°
2026-04-23 14:16 22.96103 112.61272 13334 ft 408 kts 136°
2026-04-23 14:16 22.94343 112.63697 12772 ft 411 kts 123°
2026-04-23 14:16 22.93215 112.66549 12237 ft 415 kts 106°
2026-04-23 14:17 22.92732 112.69634 11719 ft 415 kts 98°
2026-04-23 14:17 22.92391 112.72718 11300 ft 407 kts 98°
2026-04-23 14:17 22.92060 112.75717 11025 ft 394 kts 98°
2026-04-23 14:17 22.91728 112.78613 10821 ft 380 kts 98°
2026-04-23 14:18 22.91395 112.81408 10641 ft 367 kts 99°
2026-04-23 14:18 22.91066 112.84102 10478 ft 355 kts 99°
2026-04-23 14:18 22.90749 112.86712 10321 ft 343 kts 99°
2026-04-23 14:18 22.90441 112.89236 10178 ft 332 kts 99°
2026-04-23 14:19 22.90138 112.91672 9979 ft 323 kts 99°
2026-04-23 14:19 22.89836 112.94084 9565 ft 323 kts 99°
2026-04-23 14:19 22.89537 112.96485 9199 ft 320 kts 99°
2026-04-23 14:19 22.89248 112.98869 8827 ft 317 kts 99°
2026-04-23 14:20 22.88957 113.01230 8464 ft 315 kts 99°
2026-04-23 14:20 22.88663 113.03577 8088 ft 313 kts 99°
2026-04-23 14:20 22.88375 113.05897 7866 ft 307 kts 99°
2026-04-23 14:20 22.88092 113.08187 7828 ft 306 kts 99°
2026-04-23 14:21 22.87816 113.10424 7822 ft 292 kts 99°
2026-04-23 14:21 22.87585 113.12541 7809 ft 275 kts 93°
2026-04-23 14:21 22.87970 113.14470 7797 ft 255 kts 57°
2026-04-23 14:21 22.89147 113.15848 7820 ft 249 kts 35°
2026-04-23 14:22 22.90526 113.16983 7841 ft 249 kts 33°
2026-04-23 14:22 22.91908 113.18118 7852 ft 249 kts 34°
2026-04-23 14:22 22.93355 113.19115 7846 ft 242 kts 17°
2026-04-23 14:22 22.94928 113.19619 7530 ft 234 kts
2026-04-23 14:23 22.96528 113.19991 7172 ft 236 kts
2026-04-23 14:23 22.98135 113.20375 6996 ft 237 kts
2026-04-23 14:23 22.99742 113.20780 6991 ft 237 kts
2026-04-23 14:23 23.01348 113.21196 7032 ft 238 kts
2026-04-23 14:24 23.02952 113.21616 6928 ft 237 kts
2026-04-23 14:24 23.04550 113.22039 6657 ft 235 kts
2026-04-23 14:24 23.06132 113.22457 6324 ft 233 kts
2026-04-23 14:24 23.07704 113.22888 5966 ft 232 kts 10°
2026-04-23 14:25 23.09263 113.23314 5614 ft 230 kts 10°
2026-04-23 14:25 23.10812 113.23732 5274 ft 228 kts 10°
2026-04-23 14:25 23.12349 113.24145 4948 ft 226 kts 11°
2026-04-23 14:25 23.13865 113.24553 4645 ft 223 kts 11°
2026-04-23 14:26 23.15333 113.24947 4325 ft 217 kts 12°
2026-04-23 14:26 23.16770 113.25333 4034 ft 209 kts 12°
2026-04-23 14:26 23.18162 113.25707 3762 ft 203 kts 13°
2026-04-23 14:26 23.19514 113.26071 3497 ft 197 kts 14°
2026-04-23 14:27 23.20825 113.26424 3274 ft 191 kts 14°
2026-04-23 14:27 23.22094 113.26765 3020 ft 184 kts 15°
2026-04-23 14:27 23.23314 113.27093 2775 ft 177 kts 16°
2026-04-23 14:27 23.24488 113.27409 2549 ft 171 kts 16°
2026-04-23 14:28 23.25598 113.27708 2386 ft 158 kts 17°
2026-04-23 14:28 23.26635 113.27987 2177 ft 150 kts 17°
2026-04-23 14:28 23.27642 113.28258 1992 ft 149 kts 17°
2026-04-23 14:28 23.28605 113.28517 1809 ft 133 kts 17°
2026-04-23 14:29 23.29485 113.28754 1626 ft 130 kts 17°
2026-04-23 14:29 23.30363 113.28991 1430 ft 130 kts 16°
2026-04-23 14:29 23.31245 113.29229 1243 ft 131 kts 16°
2026-04-23 14:29 23.32132 113.29467 1072 ft 132 kts 15°
2026-04-23 14:30 23.33026 113.29708 893 ft 133 kts 14°
2026-04-23 14:30 23.33929 113.29952 714 ft 134 kts 14°
2026-04-23 14:30 23.34840 113.30197 529 ft 133 kts 14°
2026-04-23 14:30 23.35746 113.30452 336 ft 136 kts 14°
2026-04-23 14:31 23.36665 113.30690 174 ft 134 kts 13°
2026-04-23 14:31 23.37558 113.30939 73 ft 126 kts 12°
2026-04-23 14:31 23.38308 113.31135 59 ft 85 kts 14°
2026-04-23 14:31 23.38702 113.31237 59 ft 43 kts 15°
2026-04-23 14:32 23.38904 113.31294 55 ft 23 kts 13°
2026-04-23 14:32 23.39057 113.31289 60 ft 13 kts 346°
2026-04-23 14:32 23.39149 113.31264 61 ft 13 kts 346°
2026-04-23 14:32 23.39242 113.31238 60 ft 15 kts 348°
2026-04-23 14:33 23.39343 113.31221 59 ft 13 kts
2026-04-23 14:33 23.39440 113.31240 57 ft 15 kts 12°
2026-04-23 14:33 23.39546 113.31268 59 ft 17 kts 15°
2026-04-23 14:33 23.39659 113.31300 58 ft 13 kts 13°
2026-04-23 14:34 23.39729 113.31308 57 ft 7 kts 336°
2026-04-23 14:34 23.39751 113.31255 61 ft 9 kts 283°
2026-04-23 14:34 23.39769 113.31179 64 ft 11 kts 284°
2026-04-23 14:34 23.39789 113.31088 63 ft 13 kts 283°
2026-04-23 14:35 23.39803 113.31026 62 ft 6 kts 284°
2026-04-23 14:35 23.39816 113.30975 57 ft 8 kts 296°
2026-04-23 14:35 23.39873 113.30956 62 ft 10 kts
2026-04-23 14:35 23.39947 113.30974 61 ft 4 kts 13°
2026-04-23 14:36 23.39982 113.30962 64 ft 7 kts 302°
2026-04-23 14:36 23.40000 113.30898 60 ft 10 kts 284°
2026-04-23 14:36 23.40023 113.30818 64 ft 5 kts 304°
2026-04-23 14:36 23.40057 113.30800 59 ft 7 kts 352°
2026-04-23 14:37 23.40087 113.30765 62 ft 6 kts 299°
2026-04-23 14:37 23.40102 113.30728 56 ft 3 kts 293°
2026-04-23 14:37 23.40108 113.30711 60 ft 1 kts 290°
2026-04-23 14:37 23.40110 113.30706 59 ft 0 kts 290°